Wind_Speed
8 9 9 8 8 7 7 7 8 8 8 8 8 8 8 8 8 8 8 8 8 7 8 8 8 8 8 8 8 8 8 9 9 10 10 10 10 11 12 12 13 13 13
9 10 9 9 9 8 8 8 9 9 9 9 9 9 9 9 9 9 9 9 9 9 9 9 9 9 9 10 10 10 10 10 11 11 12 12 12 12 13 14 14 14 14
10 11 10 10 9 9 9 9 10 10 10 10 10 10 10 10 10 10 10 10 10 10 10 10 10 10 10 11 11 12 12 12 12 12 13 13 13 13 13 14 15 15 15
11 11 11 11 10 10 10 10 11 11 11 11 11 11 11 11 11 11 11 11 11 11 11 11 11 11 11 12 12 13 13 14 13 13 13 14 14 14 15 14 14 14 15
12 12 12 12 11 11 11 12 12 12 11 11 12 12 11 12 12 12 12 12 12 12 12 12 12 12 13 13 14 14 14 15 15 15 15 15 16 15 15 15 15 15 15
13 13 13 13 12 12 12 12 12 12 12 12 12 12 12 12 13 13 13 13 13 13 13 14 13 14 14 14 15 15 16 16 16 16 16 17 17 17 17 17 16 16 16
13 13 13 14 14 13 13 14 13 13 13 13 13 13 13 14 14 14 14 15 15 15 15 15 15 15 15 15 15 16 16 17 17 18 17 17 18 18 18 18 17 17 17
15 15 14 14 14 14 15 14 14 14 14 13 14 14 14 15 15 15 16 16 17 16 16 16 16 16 16 16 16 15 15 16 17 17 17 18 18 18 18 19 19 19 18
16 16 15 15 15 15 15 15 15 15 15 15 15 16 16 16 16 16 16 17 17 17 18 17 17 18 17 17 17 17 16 17 17 18 18 18 18 19 19 19 19 20 20
17 17 16 16 16 16 15 16 16 16 16 16 16 17 17 17 18 18 18 18 18 19 19 19 18 18 18 18 18 18 18 18 18 18 19 19 19 19 20 19 20 20 21
18 19 18 17 17 16 16 17 17 17 18 18 17 18 18 19 19 19 19 19 19 20 20 20 20 19 19 19 19 20 20 19 20 19 19 20 20 20 20 20 20 21 21
19 19 19 18 18 18 18 19 19 19 19 19 19 20 20 20 20 20 20 19 20 20 20 20 21 21 20 20 20 20 21 21 20 20 20 20 21 21 21 22 22 22 22
20 20 20 19 20 20 20 20 20 21 21 21 21 21 21 22 22 21 21 20 20 20 20 20 21 21 21 21 21 21 21 22 21 21 22 22 22 22 22 23 23 23 23
22 22 21 20 20 21 21 21 21 22 22 22 21 22 22 22 22 22 22 21 21 21 21 21 21 22 22 22 21 21 22 21 22 23 23 23 23 23 23 24 24 24 24
24 23 23 23 22 22 22 22 23 23 23 23 23 23 23 23 24 23 22 22 23 23 22 22 23 23 23 23 22 22 22 22 23 23 23 23 23 24 24 24 25 24 24
25 24 23 23 24 24 24 24 24 25 24 24 24 24 24 25 25 24 24 24 23 24 24 23 24 24 23 23 23 23 23 24 23 24 24 24 24 25 25 25 25 25 25
24 24 24 25 26 26 26 25 25 25 24 24 25 25 26 26 26 25 25 24 24 24 24 25 24 24 23 23 23 24 24 24 23 24 24 25 25 25 25 26 26 26 26
25 25 25 25 27 27 27 27 28 28 27 27 26 25 26 26 26 26 25 24 25 24 25 25 24 25 24 24 24 24 24 24 24 24 24 25 25 25 25 25 26 27 27
25 26 26 26 27 28 28 29 29 28 28 28 27 27 26 27 26 27 26 25 25 25 26 26 26 25 24 24 24 24 25 25 25 24 25 24 24 25 26 26 26 27 27
26 26 26 26 27 28 28 28 27 27 27 27 27 26 27 27 27 27 27 26 26 26 26 27 26 26 25 25 25 25 25 26 25 25 25 25 24 25 26 26 26 27 28
27 27 27 27 28 28 28 27 27 27 27 27 27 26 26 26 27 28 27 27 26 26 26 26 26 26 26 26 25 25 25 26 26 26 26 25 25 25 26 26 26 27 27
28 28 28 28 28 29 28 27 26 26 26 27 26 26 26 27 28 27 27 27 27 27 26 25 25 25 25 26 26 25 25 26 26 26 26 26 25 26 26 27 27 27 28
28 29 29 29 30 30 29 28 27 27 27 26 26 26 26 27 27 28 26 26 26 26 26 25 25 25 25 25 26 26 26 27 27 28 28 27 27 27 27 28 28 28 29
28 29 29 29 28 28 28 28 28 27 27 27 27 27 26 26 27 26 26 26 25 25 25 25 25 25 24 25 26 27 28 28 28 28 28 28 28 28 28 28 29 29 30
28 28 28 28 28 27 27 28 27 27 27 27 27 27 26 26 26 25 24 24 25 25 25 25 25 25 25 25 26 27 27 28 29 28 28 27 28 28 28 29 29 30 31
28 28 28 28 27 27 27 27 27 27 26 26 25 25 25 25 24 23 23 23 24 25 25 25 24 25 25 26 26 27 27 28 28 28 27 27 28 28 29 29 30 31 31
Wind_Direction
357 356 354 347 340 335 332 329 326 322 321 318 316 312 311 310 308 306 305 305 304 300 297 293 290 291 288 284 279 275 268 265 261 257 256 255 250 249 249 247 244 244 242
352 351 347 343 337 332 330 327 324 322 320 319 315 313 313 310 308 306 304 304 303 300 296 292 289 287 285 283 277 273 268 263 259 256 254 253 251 250 250 248 246 247 243
342 342 342 339 336 330 328 323 320 319 318 318 316 314 312 309 306 304 300 299 299 297 293 290 287 285 281 278 275 271 268 265 260 257 256 253 252 251 250 249 248 245 243
337 339 339 339 334 329 325 320 316 316 315 314 313 313 312 307 304 302 296 295 295 293 290 286 283 280 278 276 273 270 267 265 264 261 259 256 253 251 249 249 248 243 240
334 334 333 333 330 325 320 316 313 312 310 309 308 309 308 305 301 298 294 293 292 289 286 283 279 276 277 275 273 269 265 263 263 263 262 258 255 253 250 248 245 244 241
332 332 329 326 322 319 316 311 307 308 308 306 304 305 304 301 301 298 293 292 291 288 286 284 280 277 277 276 274 270 264 261 261 262 261 259 256 252 251 249 246 244 244
329 330 327 324 318 314 310 307 306 305 303 304 302 301 301 299 297 296 292 289 288 288 286 283 280 278 276 276 275 271 267 264 262 260 260 259 257 253 252 250 247 244 244
324 322 321 320 317 313 310 306 306 305 301 300 301 300 299 297 295 295 292 291 289 288 286 283 281 280 277 278 277 274 270 266 264 262 259 258 258 255 253 253 250 246 244
317 316 315 314 312 309 307 305 305 304 301 300 299 298 297 296 293 293 292 292 289 289 288 285 280 277 276 276 276 271 272 272 267 262 260 258 256 254 253 253 249 246 244
313 312 310 311 308 307 307 306 306 305 302 301 299 297 297 297 294 292 291 291 287 286 287 285 282 279 275 275 275 273 274 271 271 267 263 261 259 256 254 253 249 246 244
311 310 310 307 306 306 305 306 305 305 304 302 298 295 297 295 294 291 291 289 288 285 283 283 282 279 277 274 273 272 272 271 270 268 265 262 261 258 255 254 251 248 245
309 308 308 305 305 305 304 304 303 302 303 300 297 295 295 294 295 293 291 289 289 286 282 281 280 280 279 275 273 272 270 271 269 268 267 264 262 258 256 254 252 249 247
307 307 306 306 305 304 303 302 301 301 301 300 296 294 292 294 293 289 290 289 288 285 281 281 280 280 279 277 275 272 272 269 267 266 266 264 262 258 254 253 253 250 249
303 304 304 301 300 299 299 298 299 299 298 296 294 293 291 292 292 290 289 288 287 284 280 280 280 281 280 277 274 271 272 270 266 266 266 265 262 259 255 253 251 250 250
302 300 301 301 298 297 297 296 296 296 296 294 291 292 292 291 290 287 289 288 286 284 280 279 279 280 279 276 274 272 270 269 268 265 266 264 262 260 257 255 252 251 250
303 302 300 298 297 295 293 293 294 294 292 289 289 289 289 289 288 288 289 288 286 285 279 280 280 279 278 277 275 273 271 271 269 264 265 264 262 261 258 255 253 252 252
301 301 300 297 296 295 294 290 292 293 291 289 288 286 286 288 287 287 287 286 286 285 281 280 279 278 276 275 274 272 272 272 271 268 265 264 263 260 259 256 253 252 253
304 303 301 300 298 298 297 294 292 294 292 289 287 286 286 286 287 286 286 286 288 284 282 282 280 277 274 272 272 271 270 270 271 270 267 267 264 261 259 256 254 253 253
306 304 302 302 300 300 298 297 294 293 291 290 286 289 287 285 284 284 284 285 285 285 282 281 280 277 275 273 271 271 270 269 270 269 266 265 263 260 258 257 255 255 254
305 305 304 302 301 301 299 296 294 293 291 290 290 289 286 285 285 283 283 285 285 284 282 281 279 275 273 271 271 271 272 270 270 271 269 265 262 260 260 258 255 255 256
304 304 303 302 301 302 300 297 294 292 292 292 289 288 286 285 284 282 282 283 284 284 283 281 278 274 271 271 272 274 273 272 270 271 270 267 263 262 261 259 257 257 257
304 303 303 301 300 301 301 301 296 295 294 293 293 290 288 286 286 283 281 282 283 283 284 283 279 276 274 273 274 275 274 272 271 271 269 267 265 263 262 260 258 258 258
305 303 301 300 300 299 299 300 299 296 297 294 292 291 289 289 288 286 283 284 283 282 283 283 279 277 276 276 276 275 274 271 270 269 268 267 265 264 264 261 260 259 260
306 303 302 302 301 300 301 300 299 298 299 296 293 293 292 290 290 289 286 285 283 282 282 282 279 276 275 275 277 276 275 271 269 268 267 267 266 266 265 263 262 261 260
307 305 303 303 303 303 302 301 299 298 298 296 295 292 289 289 288 288 287 285 284 283 282 281 278 276 276 276 277 277 276 273 272 272 267 267 268 268 268 265 263 262 261
307 306 305 304 304 304 304 301 300 299 297 297 296 293 290 289 287 286 285 286 285 284 283 282 279 277 278 278 277 278 278 275 272 270 269 268 268 268 269 268 265 264 262
Height
5897 5895 5894 5893 5892 5890 5889 5888 5887 5886 5885 5884 5883 5882 5881 5879 5878 5877 5877 5876 5876 5876 5875 5875 5875 5874 5874 5874 5873 5873 5873 5873 5873 5873 5873 5873 5873 5874 5874 5875 5875 5876 5876
5896 5894 5893 5891 5890 5889 5888 5887 5886 5885 5884 5882 5881 5880 5879 5878 5877 5875 5875 5874 5874 5873 5873 5873 5872 5872 5872 5872 5871 5871 5871 5871 5871 5871 5871 5871 5871 5871 5872 5872 5873 5874 5874
5894 5892 5891 5890 5888 5887 5886 5885 5884 5883 5881 5880 5879 5878 5876 5875 5874 5873 5872 5872 5871 5871 5870 5870 5870 5870 5869 5869 5869 5868 5868 5868 5868 5868 5868 5868 5868 5869 5869 5869 5870 5871 5872
5892 5891 5889 5888 5887 5885 5884 5883 5882 5880 5879 5878 5876 5875 5874 5873 5872 5871 5870 5869 5869 5868 5868 5867 5867 5867 5866 5866 5866 5865 5865 5865 5865 5865 5865 5865 5865 5866 5866 5867 5867 5868 5869
5890 5889 5887 5886 5885 5883 5882 5881 5880 5878 5877 5875 5874 5873 5872 5871 5870 5868 5867 5867 5866 5865 5864 5864 5864 5863 5863 5863 5862 5862 5862 5862 5862 5862 5862 5862 5862 5863 5863 5864 5864 5865 5866
5889 5887 5885 5884 5883 5881 5880 5879 5877 5875 5874 5873 5871 5870 5869 5868 5867 5866 5865 5864 5863 5862 5861 5861 5860 5860 5860 5859 5859 5858 5858 5858 5858 5858 5858 5858 5859 5859 5860 5860 5861 5862 5863
5887 5885 5883 5882 5880 5879 5877 5876 5874 5873 5872 5870 5869 5868 5866 5865 5864 5863 5861 5861 5860 5859 5858 5857 5856 5856 5856 5855 5855 5854 5854 5854 5854 5854 5854 5854 5855 5856 5856 5857 5857 5858 5859
5885 5883 5881 5879 5877 5876 5874 5873 5871 5870 5869 5868 5866 5865 5863 5862 5860 5859 5858 5857 5856 5855 5854 5853 5853 5852 5851 5851 5851 5850 5850 5850 5850 5850 5850 5850 5851 5852 5852 5853 5854 5855 5856
5882 5880 5878 5876 5874 5873 5871 5869 5868 5867 5865 5864 5863 5861 5859 5858 5856 5855 5854 5853 5852 5851 5850 5849 5848 5847 5847 5846 5846 5846 5846 5845 5845 5845 5846 5846 5847 5848 5848 5849 5850 5851 5852
5880 5878 5876 5873 5871 5870 5868 5866 5865 5863 5861 5860 5859 5857 5855 5854 5852 5851 5850 5849 5848 5847 5846 5845 5844 5843 5842 5842 5841 5842 5841 5841 5841 5841 5841 5842 5843 5843 5844 5845 5846 5847 5848
5877 5875 5873 5870 5868 5867 5865 5863 5861 5859 5857 5856 5854 5852 5851 5850 5848 5847 5846 5844 5843 5842 5841 5840 5839 5838 5837 5837 5837 5837 5836 5836 5836 5836 5837 5837 5838 5839 5840 5840 5841 5842 5843
5874 5872 5869 5867 5865 5863 5861 5859 5857 5855 5853 5851 5850 5848 5846 5845 5844 5842 5841 5840 5838 5837 5836 5835 5834 5833 5832 5832 5831 5831 5831 5831 5831 5831 5832 5832 5833 5834 5835 5836 5836 5837 5838
5871 5868 5866 5863 5861 5859 5857 5855 5853 5851 5849 5847 5846 5844 5842 5840 5839 5838 5836 5835 5833 5832 5831 5829 5828 5828 5827 5826 5826 5826 5826 5826 5826 5826 5827 5828 5828 5829 5829 5830 5831 5832 5833
5867 5864 5861 5859 5857 5854 5852 5850 5848 5846 5844 5842 5841 5839 5837 5836 5834 5833 5831 5830 5828 5826 5825 5824 5824 5823 5822 5821 5821 5821 5820 5820 5820 5821 5822 5822 5822 5823 5824 5825 5826 5827 5828
5862 5859 5857 5855 5852 5850 5847 5845 5843 5841 5839 5837 5835 5834 5832 5831 5829 5827 5825 5825 5823 5821 5820 5819 5818 5817 5816 5816 5815 5815 5815 5815 5815 5815 5816 5816 5817 5817 5818 5819 5820 5820 5822
5857 5854 5852 5849 5847 5844 5842 5839 5837 5835 5833 5831 5829 5828 5827 5825 5824 5821 5820 5819 5818 5816 5816 5814 5813 5812 5811 5810 5810 5809 5809 5809 5809 5809 5809 5810 5810 5811 5811 5812 5813 5815 5816
5851 5849 5846 5844 5841 5839 5836 5833 5831 5829 5827 5825 5823 5822 5820 5819 5818 5816 5814 5812 5812 5811 5810 5808 5807 5805 5805 5804 5804 5804 5803 5803 5803 5803 5803 5803 5804 5804 5805 5806 5807 5808 5810
5846 5843 5841 5838 5835 5833 5830 5827 5825 5823 5821 5819 5817 5816 5814 5813 5811 5809 5808 5807 5805 5804 5804 5802 5801 5800 5799 5798 5798 5797 5797 5797 5797 5797 5797 5797 5797 5798 5798 5799 5801 5802 5803
5841 5838 5835 5833 5829 5827 5824 5821 5819 5816 5814 5812 5811 5809 5808 5806 5805 5803 5802 5801 5799 5798 5797 5796 5795 5794 5793 5792 5792 5791 5791 5791 5791 5790 5791 5791 5791 5791 5792 5793 5794 5795 5796
5836 5832 5829 5827 5824 5821 5818 5815 5812 5810 5808 5806 5805 5803 5802 5800 5798 5797 5795 5794 5793 5791 5790 5789 5788 5787 5786 5786 5785 5785 5785 5784 5784 5784 5784 5784 5784 5785 5785 5786 5787 5788 5789
5830 5827 5824 5821 5818 5815 5812 5809 5807 5804 5802 5800 5798 5797 5796 5794 5792 5790 5789 5787 5786 5784 5783 5781 5781 5780 5780 5780 5779 5779 5778 5778 5778 5778 5778 5778 5778 5778 5779 5779 5780 5781 5782
5825 5821 5818 5815 5812 5809 5806 5803 5801 5798 5796 5794 5792 5790 5788 5787 5785 5783 5782 5780 5779 5778 5776 5775 5774 5773 5773 5773 5773 5772 5772 5772 5771 5771 5771 5771 5771 5771 5772 5772 5773 5774 5774
5819 5815 5812 5809 5806 5803 5800 5797 5794 5792 5790 5787 5785 5783 5781 5780 5778 5776 5775 5773 5772 5771 5769 5768 5767 5766 5766 5766 5766 5765 5765 5765 5764 5764 5764 5764 5764 5764 5764 5765 5766 5766 5766
5813 5809 5806 5802 5799 5796 5793 5790 5788 5786 5783 5781 5779 5777 5774 5773 5771 5770 5768 5767 5765 5764 5763 5762 5761 5760 5760 5759 5759 5758 5758 5757 5757 5757 5757 5756 5756 5756 5757 5757 5758 5758 5759
5807 5803 5799 5796 5793 5790 5787 5784 5782 5779 5777 5774 5772 5770 5768 5766 5764 5763 5761 5760 5759 5757 5756 5755 5754 5754 5753 5753 5752 5751 5750 5748 5748 5748 5749 5749 5748 5748 5749 5749 5749 5750 5750
5801 5797 5793 5789 5786 5783 5780 5777 5775 5773 5770 5768 5765 5763 5761 5759 5758 5756 5755 5754 5752 5751 5750 5749 5748 5747 5746 5745 5744 5743 5742 5741 5741 5741 5741 5741 5741 5741 5741 5741 5741 5741 5741